K9APR Weather Reports


time (UTC)temp
F
wind
direction
speed
knots
gust
knots
rain 1hr
in
rain 24hr
in
rain mn
in
humidity
%
barometer
mb
20260901034828 76 128 0.0 0.0 0.00 0.00 0.00 85 1016.9
20260901034001 77 131 0.0 0.0 0.00 0.00 0.00 85 1016.9
20260901033928 77 131 0.0 0.0 0.00 0.00 0.00 85 1016.9
20260901033028 77 129 0.0 0.9 0.00 0.00 0.00 85 1017.0
20260901032131 77 115 0.0 0.0 0.00 0.00 0.00 85 1017.0
20260901031309 77 113 0.0 0.9 0.00 0.00 0.00 85 1017.1
20260901031228 77 113 0.0 0.9 0.00 0.00 0.00 85 1017.1
20260901030328 77 132 0.0 0.0 0.00 0.00 0.00 85 1017.0
20260901025536 77 133 0.0 0.0 0.00 0.00 0.00 84 1017.1
20260901025430 77 133 0.0 0.0 0.00 0.00 0.00 84 1017.1
20260901024528 77 132 0.0 0.0 0.00 0.00 0.00 85 1017.2
20260901024006 77 158 0.0 0.0 0.00 0.00 0.00 85 1017.1
20260901023659 77 158 0.0 0.0 0.00 0.00 0.00 85 1017.1
20260901023628 77 158 0.0 0.0 0.00 0.00 0.00 85 1017.1
20260901022803 77 158 0.0 0.0 0.00 0.00 0.00 85 1017.2
20260901022728 77 158 0.0 0.0 0.00 0.00 0.00 85 1017.2
20260901021828 77 158 0.0 0.0 0.00 0.00 0.00 85 1017.1
20260901021010 77 158 0.0 0.0 0.00 0.00 0.00 85 1017.1
20260901020928 77 158 0.0 0.0 0.00 0.00 0.00 85 1017.1
20260901020028 77 158 0.0 0.0 0.00 0.00 0.00 85 1017.1
20260901015129 77 158 0.0 0.0 0.00 0.00 0.00 85 1017.0
20260901014229 77 158 0.0 0.0 0.00 0.00 0.00 84 1017.0
20260901013329 78 158 0.0 0.0 0.00 0.00 0.00 84 1017.0
20260901012428 78 158 0.0 0.0 0.00 0.00 0.00 84 1016.8
20260901011529 78 158 0.0 0.0 0.00 0.00 0.00 83 1016.6
20260901010628 78 158 0.0 0.0 0.00 0.00 0.00 82 1016.6
20260901005728 79 158 0.0 0.0 0.00 0.00 0.00 81 1016.5
20260901004830 80 158 0.0 0.0 0.00 0.00 0.00 80 1016.4
20260901004007 80 158 0.0 0.0 0.00 0.00 0.00 79 1016.3
20260901003928 80 158 0.0 0.0 0.00 0.00 0.00 79 1016.3
20260901003101 81 159 0.0 0.0 0.00 0.00 0.00 78 1016.2
20260901003028 81 159 0.0 0.0 0.00 0.00 0.00 78 1016.2
20260901002233 81 159 0.0 0.0 0.00 0.00 0.00 77 1016.1
20260901002158 81 159 0.0 0.0 0.00 0.00 0.00 77 1016.1
20260901002127 81 159 0.0 0.0 0.00 0.00 0.00 77 1016.1
20260901001229 82 159 0.0 0.0 0.00 0.00 0.00 76 1016.0
20260901000329 82 159 0.0 0.0 0.00 0.00 0.00 75 1016.0
20260831235501 83 159 0.0 0.0 0.00 0.00 0.00 75 1015.9
20260831235429 83 159 0.0 0.0 0.00 0.00 0.00 75 1015.9
20260831234529 83 159 0.0 0.0 0.00 0.00 0.00 74 1015.9
20260831233627 83 156 0.0 0.0 0.00 0.00 0.00 73 1015.8
20260831232729 84 212 0.0 0.0 0.00 0.00 0.00 73 1015.9
20260831231828 84 124 0.0 0.0 0.00 0.00 0.00 72 1015.7
20260831230928 85 111 0.0 0.9 0.00 0.00 0.00 72 1015.7
20260831230029 85 226 0.0 0.9 0.00 0.00 0.00 70 1015.8
20260831225129 85 164 0.0 0.0 0.00 0.00 0.00 70 1015.7
20260831224229 86 140 0.0 0.9 0.00 0.00 0.00 68 1015.7
20260831223328 86 175 0.9 4.3 0.00 0.00 0.00 67 1015.6
20260831222429 87 164 0.9 2.6 0.00 0.00 0.00 65 1015.7
20260831220933 89 146 0.9 2.6 0.00 0.00 0.00 63 1015.7
20260831220628 89 146 0.9 2.6 0.00 0.00 0.00 63 1015.7
20260831215729 90 186 0.9 2.6 0.00 0.00 0.00 61 1015.9
20260831214855 90 188 1.7 5.2 0.00 0.00 0.00 59 1016.0
20260831214000 90 213 0.9 1.7 0.00 0.00 0.00 59 1016.0
20260831213928 90 213 0.9 1.7 0.00 0.00 0.00 59 1016.0
20260831213028 91 167 1.7 2.6 0.00 0.00 0.00 59 1016.1
20260831212128 91 202 0.9 2.6 0.00 0.00 0.00 59 1016.0
20260831211228 91 167 0.9 2.6 0.00 0.00 0.00 59 1016.1
20260831210328 90 188 0.9 2.6 0.00 0.00 0.00 60 1016.2
20260831205429 90 134 1.7 4.3 0.00 0.00 0.00 60 1016.2
20260831204527 90 203 0.0 0.9 0.00 0.00 0.00 61 1016.3
20260831203627 91 281 0.0 0.9 0.00 0.00 0.00 59 1016.4
20260831202728 91 147 0.0 0.9 0.00 0.00 0.00 63 1016.6
20260831201828 91 164 0.9 0.9 0.00 0.00 0.00 62 1016.9
20260831200928 90 139 0.0 1.7 0.00 0.00 0.00 61 1017.1
20260831200029 90 175 0.0 1.7 0.00 0.00 0.00 63 1017.3
20260831195129 90 265 0.0 1.7 0.00 0.00 0.00 64 1017.5
20260831194228 90 170 0.0 1.7 0.00 0.00 0.00 66 1017.7
20260831193328 90 300 0.9 2.6 0.00 0.00 0.00 65 1017.6
20260831192427 89 314 0.0 0.0 0.00 0.00 0.00 69 1017.7
20260831191528 88 309 1.7 2.6 0.00 0.00 0.00 67 1017.9
20260831190628 88 309 1.7 2.6 0.00 0.00 0.00 66 1017.9
20260831185729 89 311 0.9 1.7 0.00 0.00 0.00 66 1018.0
20260831184827 88 213 0.0 2.6 0.00 0.00 0.00 69 1018.2
20260831183928 89 310 2.6 2.6 0.00 0.00 0.00 68 1018.1
20260831183029 88 305 0.9 2.6 0.00 0.00 0.00 72 1018.1
20260831182129 87 310 1.7 4.3 0.00 0.00 0.00 70 1018.3
20260831181227 88 283 2.6 4.3 0.00 0.00 0.00 70 1018.3
20260831180328 88 311 1.7 2.6 0.00 0.00 0.00 72 1018.3
20260831175428 88 255 0.0 0.0 0.00 0.00 0.00 72 1018.3
20260831174528 87 304 0.0 0.0 0.00 0.00 0.00 74 1018.4
20260831173628 86 309 0.9 0.0 0.00 0.00 0.00 74 1018.5
20260831172729 86 312 0.0 0.9 0.00 0.00 0.00 73 1018.5
20260831171829 85 144 0.9 2.6 0.00 0.00 0.00 73 1018.7
20260831170932 85 305 1.7 4.3 0.00 0.00 0.00 74 1018.7
20260831165128 87 308 0.9 5.2 0.00 0.00 0.00 73 1018.7
20260831164228 87 158 0.9 1.7 0.00 0.00 0.00 75 1018.9
20260831163329 86 300 0.0 2.6 0.00 0.00 0.00 76 1018.9
20260831162428 85 301 0.0 0.0 0.00 0.00 0.00 76 1019.0
20260831161528 84 309 0.9 2.6 0.00 0.00 0.00 77 1019.0
20260831160629 84 166 0.9 0.9 0.00 0.00 0.00 78 1018.9
20260831155728 83 134 0.9 1.7 0.00 0.00 0.00 81 1019.0
20260831154829 82 296 0.0 0.9 0.00 0.00 0.00 82 1018.9
20260831153928 81 319 0.0 0.0 0.00 0.00 0.00 81 1019.0
20260831153027 81 193 0.0 1.7 0.00 0.00 0.00 81 1019.0
20260831152129 81 280 0.0 0.9 0.00 0.00 0.00 81 1018.9
20260831151309 81 172 0.0 0.0 0.00 0.00 0.00 82 1018.9
20260831151228 81 172 0.0 0.0 0.00 0.00 0.00 82 1018.9
20260831150328 80 259 0.0 2.6 0.00 0.00 0.00 82 1018.9
20260831145429 80 249 0.0 0.9 0.00 0.00 0.00 83 1018.8
20260831144528 79 118 0.0 0.0 0.00 0.00 0.00 82 1018.8
20260831143630 79 283 0.0 0.0 0.00 0.00 0.00 82 1018.8
20260831142729 79 153 0.0 0.0 0.00 0.00 0.00 83 1018.6
20260831141828 78 205 0.0 0.0 0.00 0.00 0.00 82 1018.6
20260831140928 78 172 0.0 0.9 0.00 0.00 0.00 83 1018.6
20260831140027 77 203 0.0 0.9 0.00 0.00 0.00 83 1018.7
20260831135207 76 171 0.0 1.7 0.00 0.00 0.00 85 1018.6
20260831135128 76 171 0.0 1.7 0.00 0.00 0.00 85 1018.6
20260831134228 75 159 0.0 1.7 0.00 0.00 0.00 86 1018.6
20260831133417 75 158 0.0 0.9 0.00 0.00 0.00 88 1018.7
20260831133328 75 158 0.0 0.9 0.00 0.00 0.00 88 1018.7
20260831132535 74 167 0.0 0.0 0.00 0.00 0.00 88 1018.7
20260831132429 74 167 0.0 0.0 0.00 0.00 0.00 88 1018.7
20260831131640 73 149 0.0 0.0 0.00 0.00 0.00 89 1018.6
20260831131607 73 149 0.0 0.0 0.00 0.00 0.00 89 1018.6
20260831131528 73 149 0.0 0.0 0.00 0.00 0.00 89 1018.6
20260831130659 72 149 0.0 0.0 0.00 0.00 0.00 89 1018.6
20260831130627 72 149 0.0 0.0 0.00 0.00 0.00 89 1018.6
20260831125804 71 149 0.0 0.0 0.00 0.00 0.00 89 1018.7
20260831125728 71 149 0.0 0.0 0.00 0.00 0.00 89 1018.7
20260831125013 71 149 0.0 0.0 0.00 0.00 0.00 89 1018.6
20260831124859 71 149 0.0 0.0 0.00 0.00 0.00 89 1018.6
20260831124827 71 149 0.0 0.0 0.00 0.00 0.00 89 1018.6
20260831124001 71 149 0.0 0.0 0.00 0.00 0.00 89 1018.6
20260831123928 71 149 0.0 0.0 0.00 0.00 0.00 89 1018.6
20260831123233 71 149 0.0 0.0 0.00 0.00 0.00 89 1018.5
20260831123115 71 149 0.0 0.0 0.00 0.00 0.00 89 1018.5
20260831123029 71 149 0.0 0.0 0.00 0.00 0.00 89 1018.5
20260831122129 70 154 0.0 0.0 0.00 0.00 0.00 89 1018.5
20260831121315 70 154 0.0 0.0 0.00 0.00 0.00 89 1018.4
20260831121229 70 154 0.0 0.0 0.00 0.00 0.00 89 1018.4
20260831120410 70 154 0.0 0.0 0.00 0.00 0.00 89 1018.3
20260831120336 70 154 0.0 0.0 0.00 0.00 0.00 89 1018.3
20260831115552 70 154 0.0 0.0 0.00 0.00 0.00 89 1018.4
20260831115502 70 154 0.0 0.0 0.00 0.00 0.00 89 1018.4
20260831115430 70 154 0.0 0.0 0.00 0.00 0.00 89 1018.4
20260831114602 70 154 0.0 0.0 0.00 0.00 0.00 90 1018.3
20260831114531 70 154 0.0 0.0 0.00 0.00 0.00 90 1018.3
20260831113659 70 154 0.0 0.0 0.00 0.00 0.00 90 1018.3
20260831113627 70 154 0.0 0.0 0.00 0.00 0.00 90 1018.3
20260831112920 69 154 0.0 0.0 0.00 0.00 0.00 90 1018.3
20260831112727 69 154 0.0 0.0 0.00 0.00 0.00 90 1018.3
20260831111908 69 154 0.0 0.0 0.00 0.00 0.00 90 1018.3
20260831111828 69 154 0.0 0.0 0.00 0.00 0.00 90 1018.3
20260831111015 69 154 0.0 0.0 0.00 0.00 0.00 89 1018.2
20260831110928 69 154 0.0 0.0 0.00 0.00 0.00 89 1018.2
20260831110238 70 154 0.0 0.0 0.00 0.00 0.00 89 1018.1
20260831110134 70 154 0.0 0.0 0.00 0.00 0.00 89 1018.1
20260831110027 70 154 0.0 0.0 0.00 0.00 0.00 89 1018.1
20260831105343 70 154 0.0 0.0 0.00 0.00 0.00 89 1018.0
20260831105310 70 154 0.0 0.0 0.00 0.00 0.00 89 1018.0
20260831105128 70 154 0.0 0.0 0.00 0.00 0.00 89 1018.0
20260831104437 70 154 0.0 0.0 0.00 0.00 0.00 89 1017.9
20260831104350 70 154 0.0 0.0 0.00 0.00 0.00 89 1017.9
20260831104228 70 154 0.0 0.0 0.00 0.00 0.00 89 1017.9
20260831103641 71 154 0.0 0.0 0.00 0.00 0.00 88 1017.7
20260831103405 71 154 0.0 0.0 0.00 0.00 0.00 88 1017.7
20260831103328 71 154 0.0 0.0 0.00 0.00 0.00 88 1017.7
20260831102428 71 154 0.0 0.0 0.00 0.00 0.00 89 1017.6
20260831101529 71 154 0.0 0.0 0.00 0.00 0.00 89 1017.4
20260831100957 70 154 0.0 0.0 0.00 0.00 0.00 90 1017.7
20260831100813 70 154 0.0 0.0 0.00 0.00 0.00 90 1017.7
20260831100702 70 154 0.0 0.0 0.00 0.00 0.00 90 1017.7
20260831100630 70 154 0.0 0.0 0.00 0.00 0.00 90 1017.7
20260831095729 70 154 0.0 0.0 0.00 0.00 0.00 90 1017.6
20260831094828 70 154 0.0 0.0 0.00 0.00 0.00 91 1017.7
20260831093928 69 154 0.0 0.0 0.00 0.00 0.00 91 1017.5
20260831093103 69 154 0.0 0.0 0.00 0.00 0.00 91 1017.6
20260831093030 69 154 0.0 0.0 0.00 0.00 0.00 91 1017.6
20260831092129 69 154 0.0 0.0 0.00 0.00 0.00 91 1017.6
20260831091634 69 154 0.0 0.0 0.00 0.00 0.00 91 1017.8
20260831091313 69 154 0.0 0.0 0.00 0.00 0.00 91 1017.8
20260831091228 69 154 0.0 0.0 0.00 0.00 0.00 91 1017.8
20260831090417 69 154 0.0 0.0 0.00 0.00 0.00 91 1017.8
20260831090328 69 154 0.0 0.0 0.00 0.00 0.00 91 1017.8
20260831085428 69 154 0.0 0.0 0.00 0.00 0.00 90 1017.9
20260831083804 69 154 0.0 0.0 0.00 0.00 0.00 91 1017.7
20260831083629 69 154 0.0 0.0 0.00 0.00 0.00 91 1017.7
20260831083350 69 154 0.0 0.0 0.00 0.00 0.00 90 1017.6
20260831083315 69 154 0.0 0.0 0.00 0.00 0.00 90 1017.6
20260831083242 69 154 0.0 0.0 0.00 0.00 0.00 90 1017.6
20260831083158 69 154 0.0 0.0 0.00 0.00 0.00 90 1017.6
20260831083127 69 154 0.0 0.0 0.00 0.00 0.00 90 1017.6
20260831082727 69 154 0.0 0.0 0.00 0.00 0.00 90 1017.6
20260831081830 69 154 0.0 0.0 0.00 0.00 0.00 90 1017.5
20260831081159 69 154 0.0 0.0 0.00 0.00 0.00 90 1017.5
20260831081042 69 154 0.0 0.0 0.00 0.00 0.00 90 1017.5
20260831081000 69 154 0.0 0.0 0.00 0.00 0.00 90 1017.5
20260831080928 69 154 0.0 0.0 0.00 0.00 0.00 90 1017.5
20260831080111 69 154 0.0 0.0 0.00 0.00 0.00 90 1017.4
20260831080027 69 154 0.0 0.0 0.00 0.00 0.00 90 1017.4
20260831075128 69 154 0.0 0.0 0.00 0.00 0.00 89 1017.3
20260831074422 70 154 0.0 0.0 0.00 0.00 0.00 89 1017.3
20260831074234 70 154 0.0 0.0 0.00 0.00 0.00 89 1017.3
20260831073327 70 154 0.0 0.0 0.00 0.00 0.00 89 1017.4
20260831072609 70 154 0.0 0.0 0.00 0.00 0.00 89 1017.4
20260831072538 70 154 0.0 0.0 0.00 0.00 0.00 89 1017.4
20260831072507 70 154 0.0 0.0 0.00 0.00 0.00 89 1017.4
20260831072430 70 154 0.0 0.0 0.00 0.00 0.00 89 1017.4
20260831071658 70 154 0.0 0.0 0.00 0.00 0.00 89 1017.4
20260831071612 70 154 0.0 0.0 0.00 0.00 0.00 89 1017.4
20260831071528 70 154 0.0 0.0 0.00 0.00 0.00 89 1017.4
20260831070904 70 154 0.0 0.0 0.00 0.00 0.00 89 1017.2
20260831070700 70 154 0.0 0.0 0.00 0.00 0.00 89 1017.2
20260831070628 70 154 0.0 0.0 0.00 0.00 0.00 89 1017.2
20260831065802 70 154 0.0 0.0 0.00 0.00 0.00 89 1017.3
20260831065727 70 154 0.0 0.0 0.00 0.00 0.00 89 1017.3
20260831065039 70 154 0.0 0.0 0.00 0.00 0.00 89 1017.3
20260831065006 70 154 0.0 0.0 0.00 0.00 0.00 89 1017.3
20260831064902 70 154 0.0 0.0 0.00 0.00 0.00 89 1017.3
20260831064831 70 154 0.0 0.0 0.00 0.00 0.00 89 1017.3
20260831064409 70 154 0.0 0.0 0.00 0.00 0.00 89 1017.3
20260831064139 70 154 0.0 0.0 0.00 0.00 0.00 89 1017.3
20260831064009 70 154 0.0 0.0 0.00 0.00 0.00 89 1017.3
20260831063927 70 154 0.0 0.0 0.00 0.00 0.00 89 1017.3
20260831063150 70 154 0.0 0.0 0.00 0.00 0.00 89 1017.6
20260831063028 70 154 0.0 0.0 0.00 0.00 0.00 89 1017.6
20260831062201 70 154 0.0 0.0 0.00 0.00 0.00 89 1017.6
20260831062128 70 154 0.0 0.0 0.00 0.00 0.00 89 1017.6
20260831060508 71 154 0.0 0.0 0.00 0.00 0.00 89 1017.8
20260831060418 71 154 0.0 0.0 0.00 0.00 0.00 89 1017.8
20260831060328 71 154 0.0 0.0 0.00 0.00 0.00 89 1017.8
20260831055604 71 154 0.0 0.0 0.00 0.00 0.00 89 1017.8
20260831055459 71 154 0.0 0.0 0.00 0.00 0.00 89 1017.8
20260831055428 71 154 0.0 0.0 0.00 0.00 0.00 89 1017.8
20260831054603 71 154 0.0 0.0 0.00 0.00 0.00 89 1017.8
20260831054528 71 154 0.0 0.0 0.00 0.00 0.00 89 1017.8
20260831053902 71 154 0.0 0.0 0.00 0.00 0.00 89 1017.9
20260831053627 71 154 0.0 0.0 0.00 0.00 0.00 89 1017.9
20260831052816 71 154 0.0 0.0 0.00 0.00 0.00 89 1018.1
20260831052730 71 154 0.0 0.0 0.00 0.00 0.00 89 1018.1
20260831052352 71 154 0.0 0.0 0.00 0.00 0.00 89 1018.1
20260831052156 71 154 0.0 0.0 0.00 0.00 0.00 89 1018.1
20260831052006 71 154 0.0 0.0 0.00 0.00 0.00 89 1018.1
20260831051900 71 154 0.0 0.0 0.00 0.00 0.00 89 1018.1
20260831051829 71 154 0.0 0.0 0.00 0.00 0.00 89 1018.1
20260831050111 71 154 0.0 0.0 0.00 0.00 0.00 89 1018.1
20260831050028 71 154 0.0 0.0 0.00 0.00 0.00 89 1018.1
20260831045128 71 154 0.0 0.0 0.00 0.00 0.00 89 1017.9
20260831044356 71 154 0.0 0.0 0.00 0.00 0.00 89 1017.8
20260831044258 71 154 0.0 0.0 0.00 0.00 0.00 89 1017.8
20260831044228 71 154 0.0 0.0 0.00 0.00 0.00 89 1017.8
20260831043401 71 154 0.0 0.0 0.00 0.00 0.00 89 1017.9
20260831043328 71 154 0.0 0.0 0.00 0.00 0.00 89 1017.9
20260831042513 71 154 0.0 0.0 0.00 0.00 0.00 89 1018.0
20260831042429 71 154 0.0 0.0 0.00 0.00 0.00 89 1018.0
20260831042104 71 154 0.0 0.0 0.00 0.00 0.00 89 1017.9
20260831041851 71 154 0.0 0.0 0.00 0.00 0.00 89 1017.9
20260831041814 71 154 0.0 0.0 0.00 0.00 0.00 89 1017.9
20260831041636 71 154 0.0 0.0 0.00 0.00 0.00 89 1017.9
20260831041602 71 154 0.0 0.0 0.00 0.00 0.00 89 1017.9
20260831041529 71 154 0.0 0.0 0.00 0.00 0.00 89 1017.9
20260831040904 72 154 0.0 0.0 0.00 0.00 0.00 89 1017.9
20260831040659 72 154 0.0 0.0 0.00 0.00 0.00 89 1017.9
20260831040627 72 154 0.0 0.0 0.00 0.00 0.00 89 1017.9
20260831040047 72 154 0.0 0.0 0.00 0.00 0.00 89 1017.7
20260831035910 72 154 0.0 0.0 0.00 0.00 0.00 89 1017.7
20260831035839 72 154 0.0 0.0 0.00 0.00 0.00 89 1017.7
20260831035729 72 154 0.0 0.0 0.00 0.00 0.00 89 1017.7